Date String (YYYY-MM-DD hh:mm:ss) UTC,Instrument flags,Ambient pressure (hPa),Sample flow (lpm),Bypass flow (lpm),Sample temperature (°C),Ambient temperature (°C),ASC tube jacket temperature (°C),LED temperature (°C),Box temperature (°C),Sample RH (%),Span deviation,Mass concentration (μg/m³),Mass concentration (μg/m³),Mass concentration (μg/m³)
DateTimeUTC,F1_M11,P_M11,Q1_M11,Q2_M11,T1_M11,T2_M11,T3_M11,T4_M11,T5_M11,U1_M11,ZSPAN_M11,X2_M11,X0_M11,X1_M11
2023-04-04 11:00:00,,0813.4,4.99,0.00,23.4,23.6,00.0,31.5,25.2,13.9,0000.0,0002.12,0005.04,0001.83
2023-04-04 11:01:00,,0813.4,5.00,0.00,23.3,23.3,00.0,31.6,25.0,13.9,0000.0,0002.16,0005.30,0001.85
2023-04-04 11:02:00,,0813.4,5.01,0.00,23.3,22.9,00.0,31.6,24.9,13.9,0000.0,0002.19,0005.13,0001.84
2023-04-04 11:03:00,,0813.3,5.01,0.00,23.2,22.5,00.0,31.6,24.8,13.9,0000.0,0002.19,0004.75,0001.83
2023-04-04 11:04:00,,0813.3,4.99,0.00,23.2,22.1,00.0,31.6,24.7,14.0,0000.0,0002.16,0005.31,0001.83
2023-04-04 11:05:00,,0813.3,4.99,0.00,23.1,21.8,00.0,31.6,24.6,14.0,0000.0,0002.19,0006.57,0001.83
2023-04-04 11:06:00,,0813.2,5.00,0.00,23.1,21.6,00.0,31.6,24.5,14.0,0000.0,0002.18,0006.77,0001.81
2023-04-04 11:07:00,,0813.2,5.00,0.00,23.0,21.3,00.0,31.6,24.4,14.0,0000.0,0002.14,0007.09,0001.79
2023-04-04 11:08:00,,0813.1,5.02,0.00,23.0,21.1,00.0,31.5,24.3,14.0,0000.0,0002.10,0007.06,0001.78
2023-04-04 11:09:00,,0813.1,5.01,0.00,23.0,21.4,00.0,31.5,24.5,14.1,0000.0,0002.10,0005.94,0001.78
2023-04-04 11:10:00,,0813.0,4.99,0.00,23.1,22.4,00.0,31.4,24.9,14.0,0000.0,0002.11,0006.36,0001.77
2023-04-04 11:11:00,,0813.0,5.01,0.00,23.2,23.3,00.0,31.4,25.2,13.9,0000.0,0002.06,0006.03,0001.75
2023-04-04 11:12:00,,0813.1,5.00,0.00,23.3,23.3,00.0,31.5,25.0,13.8,0000.0,0002.04,0006.17,0001.74
2023-04-04 11:13:00,,0813.0,5.00,0.00,23.3,22.9,00.0,31.5,24.9,13.8,0000.0,0002.03,0006.13,0001.73
2023-04-04 11:14:00,,0813.0,4.99,0.00,23.2,22.4,00.0,31.6,24.7,13.9,0000.0,0002.03,0006.08,0001.72
2023-04-04 11:15:00,,0813.0,5.01,0.00,23.2,22.1,00.0,31.6,24.6,13.8,0000.0,0002.03,0006.35,0001.71
2023-04-04 11:16:00,,0813.0,5.00,0.00,23.1,21.8,00.0,31.6,24.5,13.9,0000.0,0002.01,0005.56,0001.70
2023-04-04 11:17:00,,0812.8,5.00,0.00,23.0,21.4,00.0,31.5,24.4,13.9,0000.0,0002.01,0005.48,0001.70
2023-04-04 11:18:00,,0812.9,5.00,0.00,23.0,21.2,00.0,31.5,24.3,13.9,0000.0,0002.01,0004.97,0001.69
2023-04-04 11:19:00,,0812.9,5.00,0.00,22.9,21.0,00.0,31.5,24.3,14.0,0000.0,0002.05,0005.03,0001.69
2023-04-04 11:20:00,,0813.0,5.00,0.00,22.9,21.1,00.0,31.4,24.4,14.0,0000.0,0002.09,0005.02,0001.67
2023-04-04 11:21:00,,0813.0,5.01,0.00,23.0,22.0,00.0,31.4,24.8,13.9,0000.0,0002.03,0004.92,0001.66
2023-04-04 11:22:00,,0813.1,5.00,0.00,23.1,23.1,00.0,31.4,25.1,13.8,0000.0,0002.03,0006.22,0001.64
2023-04-04 11:23:00,,0813.2,4.99,0.00,23.2,23.3,00.0,31.4,25.0,13.8,0000.0,0001.99,0005.86,0001.63
2023-04-04 11:24:00,,0813.2,5.00,0.00,23.2,23.0,00.0,31.5,24.9,13.7,0000.0,0001.95,0005.79,0001.61
2023-04-04 11:25:00,,0813.2,5.00,0.00,23.2,22.6,00.0,31.5,24.7,13.8,0000.0,0001.91,0005.71,0001.59
2023-04-04 11:26:00,,0813.2,5.00,0.00,23.1,22.2,00.0,31.5,24.6,13.7,0000.0,0001.90,0005.71,0001.58
2023-04-04 11:27:00,,0813.2,5.00,0.00,23.1,21.8,00.0,31.5,24.5,13.7,0000.0,0001.90,0005.42,0001.56
2023-04-04 11:28:00,,0813.2,4.99,0.00,23.0,21.5,00.0,31.5,24.4,13.8,0000.0,0001.86,0005.37,0001.53
2023-04-04 11:29:00,,0813.3,5.00,0.00,22.9,21.3,00.0,31.5,24.4,13.8,0000.0,0001.84,0005.36,0001.51
2023-04-04 11:30:00,,0813.3,5.00,0.00,22.9,21.3,00.0,31.4,24.4,13.8,0000.0,0001.79,0005.30,0001.50
2023-04-04 11:31:00,,0813.4,5.01,0.00,23.0,22.2,00.0,31.3,24.8,13.8,0000.0,0001.70,0005.13,0001.48
2023-04-04 11:32:00,,0813.6,5.01,0.00,23.2,23.3,00.0,31.3,25.1,13.7,0000.0,0001.67,0004.85,0001.47
2023-04-04 11:33:00,,0813.6,5.00,0.00,23.3,23.6,00.0,31.4,25.1,13.6,0000.0,0001.64,0003.20,0001.45
2023-04-04 11:34:00,,0813.6,4.99,0.00,23.2,23.3,00.0,31.5,24.9,13.7,0000.0,0001.64,0002.93,0001.45
2023-04-04 11:35:00,,0813.7,5.01,0.00,23.2,22.9,00.0,31.5,24.8,13.7,0000.0,0001.64,0002.96,0001.45
2023-04-04 11:36:00,,0813.7,5.01,0.00,23.2,22.5,00.0,31.5,24.7,13.7,0000.0,0001.65,0002.97,0001.46
2023-04-04 11:37:00,,0813.6,5.00,0.00,23.1,22.2,00.0,31.5,24.6,13.8,0000.0,0001.65,0002.46,0001.47
2023-04-04 11:38:00,,0813.7,4.99,0.00,23.1,21.9,00.0,31.5,24.6,13.8,0000.0,0001.64,0001.94,0001.47
2023-04-04 11:39:00,,0813.5,5.00,0.00,23.0,21.7,00.0,31.5,24.5,13.9,0000.0,0001.63,0001.90,0001.48
2023-04-04 11:40:00,,0813.4,5.00,0.00,23.0,21.5,00.0,31.5,24.4,13.9,0000.0,0001.62,0001.89,0001.48
2023-04-04 11:41:00,,0813.3,5.00,0.00,22.9,21.4,00.0,31.4,24.4,13.9,0000.0,0001.63,0001.95,0001.48
2023-04-04 11:42:00,,0813.5,5.01,0.00,23.0,22.0,00.0,31.4,24.8,13.8,0000.0,0001.62,0002.01,0001.46
2023-04-04 11:43:00,,0813.6,5.00,0.00,23.2,23.0,00.0,31.4,25.1,13.6,0000.0,0001.59,0002.54,0001.42
2023-04-04 11:44:00,,0813.6,4.97,0.00,23.3,23.5,00.0,31.4,25.1,13.5,0000.0,0001.56,0004.83,0001.39
2023-04-04 11:45:00,,0813.6,5.00,0.00,23.3,23.2,00.0,31.5,25.0,13.4,0000.0,0001.50,0005.71,0001.34
2023-04-04 11:46:00,,0813.5,4.99,0.00,23.2,22.8,00.0,31.5,24.8,13.4,0000.0,0001.46,0006.95,0001.29
2023-04-04 11:47:00,,0813.5,5.02,0.00,23.2,22.4,00.0,31.5,24.7,13.4,0000.0,0001.42,0007.52,0001.24
2023-04-04 11:48:00,,0813.5,5.01,0.00,23.1,22.1,00.0,31.5,24.6,13.4,0000.0,0001.37,0007.49,0001.18
2023-04-04 11:49:00,,0813.5,4.99,0.00,23.1,21.8,00.0,31.5,24.5,13.4,0000.0,0001.35,0007.70,0001.13
2023-04-04 11:50:00,,0813.4,5.00,0.00,23.1,22.3,00.0,31.4,24.9,13.3,0000.0,0001.31,0007.82,0001.10
2023-04-04 11:51:00,,0813.5,5.01,0.00,23.3,23.3,00.0,31.4,25.2,13.2,0000.0,0001.26,0007.86,0001.05
2023-04-04 11:52:00,,0813.5,4.98,0.00,23.4,23.7,00.0,31.5,25.3,13.1,0000.0,0001.23,0007.83,0001.02
2023-04-04 11:53:00,,0813.5,5.00,0.00,23.4,23.4,00.0,31.5,25.1,13.1,0000.0,0001.20,0007.77,0000.99
2023-04-04 11:54:00,,0813.4,5.00,0.00,23.3,23.0,00.0,31.6,24.9,13.1,0000.0,0001.18,0007.53,0000.99
2023-04-04 11:55:00,,0813.4,5.01,0.00,23.3,22.5,00.0,31.6,24.8,13.1,0000.0,0001.18,0005.77,0000.99
2023-04-04 11:56:00,,0813.3,4.99,0.00,23.2,22.2,00.0,31.6,24.7,13.2,0000.0,0001.19,0004.96,0000.99
2023-04-04 11:57:00,,0813.4,5.00,0.00,23.3,22.7,00.0,31.5,25.0,13.1,0000.0,0001.19,0004.11,0001.00
2023-04-04 11:58:00,,0813.5,5.02,0.00,23.4,23.6,00.0,31.5,25.4,13.0,0000.0,0001.16,0002.86,0001.00
2023-04-04 11:59:00,,0813.6,4.99,0.00,23.5,24.0,00.0,31.6,25.5,12.9,0000.0,0001.18,0003.19,0000.99
